Weather History for Mount Airy, NC

Change the Weather History Date:

Thursday, March 15, 2012

  Actual Average (KINT) Record (KINT)
Temperature  
Mean Temperature 62 °F -  
Max Temperature 78 °F 55 °F 84 °F (1990)
Min Temperature 46 °F 38 °F 1 °F (1993)
Degree Days  
Heating Degree Days 3    
Growing Degree Days 12 (Base 50)    
Moisture  
Dew Point 49 °F    
Average Humidity 68    
Maximum Humidity 88    
Minimum Humidity 32    
Precipitation  
Precipitation 0.10 in - - ()
Sea Level Pressure  
Sea Level Pressure 30.24 in    
Wind  
Wind Speed 1 mph (NW)    
Max Wind Speed 17 mph    
Max Gust Speed 23 mph    
Visibility 10 miles    
Events Rain    
Averages and records for this station are not official NWS values.
T = Trace of Precipitation, MM = Missing Value Source: NWS Daily Summary

Daily Weather History Graph

Daily Weather History Graph

Search for Another Location

Airport:

Trip Planner

Search our weather history database for the weather conditions in past years. The results will help you decide how hot, cold, wet, or windy it might be!

Date:

Astronomy

Mar. 15, 2012 Rise Set
Actual Time 7:32 AM EDT 7:30 PM EDT
Civil Twilight 7:06 AM EDT 7:55 PM EDT
Nautical Twilight 6:36 AM EDT 8:25 PM EDT
Astronomical Twilight 6:06 AM EDT 8:56 PM EDT
Moon 2:49 AM EDT (3/15) 12:55 PM EDT (3/15)
Length of Visible Light 12h 49m
Length of Day
11h 57m
Last Quarter, 43% of the Moon is Illuminated
Mar 15
Last Quarter
Mar 22
New
Mar 30
First Quarter
Apr 6
Full
Apr 13
Last Quarter

Hourly Weather History & Observations

Time (EDT) Temp. Dew Point Humidity Pressure Visibility Wind Dir Wind Speed Gust Speed Precip Events Conditions
12:15 AM 55.4 °F 46.4 °F 72% 30.23 in 10.0 mi Calm Calm - N/A   Clear
12:35 AM 55.4 °F 46.4 °F 72% 30.23 in 10.0 mi Calm Calm - N/A   Clear
12:55 AM 55.4 °F 46.4 °F 72% 30.22 in 10.0 mi Calm Calm - N/A   Clear
1:15 AM 57.2 °F 46.4 °F 67% 30.22 in 10.0 mi Calm Calm - N/A   Clear
1:35 AM 55.4 °F 46.4 °F 72% 30.22 in 10.0 mi Calm Calm - N/A   Clear
1:55 AM 55.4 °F 46.4 °F 72% 30.22 in 10.0 mi Calm Calm - N/A   Clear
2:15 AM 53.6 °F 46.4 °F 77% 30.22 in 10.0 mi Calm Calm - N/A   Clear
2:35 AM 53.6 °F 46.4 °F 77% 30.22 in 10.0 mi Calm Calm - N/A   Clear
2:55 AM 53.6 °F 46.4 °F 77% 30.22 in 10.0 mi Calm Calm - N/A   Clear
3:15 AM 53.6 °F 46.4 °F 77% 30.22 in 10.0 mi Calm Calm - N/A   Clear
3:35 AM 53.6 °F 46.4 °F 77% 30.22 in 10.0 mi Calm Calm - N/A   Clear
3:55 AM 53.6 °F 46.4 °F 77% 30.22 in 10.0 mi Calm Calm - N/A   Scattered Clouds
4:15 AM 51.8 °F 46.4 °F 82% 30.21 in 10.0 mi Calm Calm - N/A   Clear
4:35 AM 51.8 °F 46.4 °F 82% 30.21 in 10.0 mi Calm Calm - N/A   Scattered Clouds
4:55 AM 51.8 °F 46.4 °F 82% 30.22 in 10.0 mi Calm Calm - N/A   Scattered Clouds
5:15 AM 51.8 °F 46.4 °F 82% 30.22 in 10.0 mi Calm Calm - N/A   Scattered Clouds
5:35 AM 51.8 °F 46.4 °F 82% 30.22 in 10.0 mi Calm Calm - N/A   Scattered Clouds
5:55 AM 51.8 °F 46.4 °F 82% 30.22 in 10.0 mi Calm Calm - N/A   Scattered Clouds
6:15 AM 50.0 °F 44.6 °F 82% 30.22 in 10.0 mi Calm Calm - N/A   Clear
6:35 AM 51.8 °F 46.4 °F 82% 30.23 in 10.0 mi Calm Calm - N/A   Clear
6:55 AM 50.0 °F 44.6 °F 82% 30.24 in 10.0 mi Calm Calm - N/A   Clear
7:15 AM 46.4 °F 42.8 °F 87% 30.25 in 10.0 mi Calm Calm - N/A   Clear
7:35 AM 50.0 °F 44.6 °F 82% 30.25 in 10.0 mi Calm Calm - N/A   Clear
7:55 AM 48.2 °F 42.8 °F 82% 30.25 in 10.0 mi Calm Calm - N/A   Clear
8:15 AM 50.0 °F 44.6 °F 82% 30.26 in 10.0 mi Calm Calm - N/A   Clear
8:35 AM 53.6 °F 48.2 °F 82% 30.26 in 10.0 mi Calm Calm - N/A   Clear
8:55 AM 59.0 °F 50.0 °F 72% 30.26 in 10.0 mi Calm Calm - N/A   Clear
9:15 AM 59.0 °F 50.0 °F 72% 30.26 in 10.0 mi Calm Calm - N/A   Clear
9:35 AM 60.8 °F 50.0 °F 68% 30.26 in 10.0 mi Calm Calm - N/A   Clear
9:55 AM 62.6 °F 50.0 °F 63% 30.28 in 10.0 mi Calm Calm - N/A   Scattered Clouds
10:15 AM 64.4 °F 50.0 °F 59% 30.27 in 10.0 mi Calm Calm - N/A   Clear
10:35 AM 68.0 °F 50.0 °F 52% 30.28 in 10.0 mi Calm Calm - N/A   Clear
10:55 AM 69.8 °F 50.0 °F 49% 30.28 in 10.0 mi Calm Calm - N/A   Clear
11:15 AM 71.6 °F 50.0 °F 46% 30.28 in 10.0 mi Calm Calm - N/A   Clear
11:35 AM 71.6 °F 46.4 °F 41% 30.28 in 10.0 mi Calm Calm - N/A   Clear
11:55 AM 71.6 °F 46.4 °F 41% 30.28 in 10.0 mi Calm Calm - N/A   Clear
12:15 PM 73.4 °F 46.4 °F 38% 30.27 in 10.0 mi Calm Calm - N/A   Clear
12:35 PM 73.4 °F 46.4 °F 38% 30.27 in 10.0 mi Calm Calm - N/A   Clear
12:55 PM 77.0 °F 50.0 °F 39% 30.25 in 10.0 mi SSE 4.6 mph - N/A   Clear
1:15 PM 77.0 °F 48.2 °F 36% 30.25 in 10.0 mi Calm Calm - N/A   Clear
1:35 PM 77.0 °F 48.2 °F 36% 30.24 in 10.0 mi WSW 3.5 mph - N/A   Clear
1:55 PM 78.8 °F 46.4 °F 32% 30.23 in 10.0 mi ESE 4.6 mph - N/A   Clear
2:15 PM 77.0 °F 46.4 °F 34% 30.23 in 10.0 mi Calm Calm - N/A   Mostly Cloudy
2:35 PM 77.0 °F 46.4 °F 34% 30.23 in 10.0 mi North 5.8 mph - N/A   Overcast
2:55 PM 69.8 °F 53.6 °F 56% 30.27 in 7.0 mi WNW 17.3 mph 23.0 mph N/A Rain Rain
3:15 PM 62.6 °F 55.4 °F 77% 30.28 in 7.0 mi West 5.8 mph 18.4 mph 0.03 in Rain Rain
3:35 PM 60.8 °F 55.4 °F 82% 30.29 in 5.0 mi Calm Calm - 0.07 in Rain Rain
3:55 PM 60.8 °F 57.2 °F 88% 30.27 in 5.0 mi Calm Calm - 0.09 in Rain Rain
4:15 PM 62.6 °F 59.0 °F 88% 30.26 in 7.0 mi North 3.5 mph - 0.01 in Rain Light Rain
4:35 PM 62.6 °F 59.0 °F 88% 30.25 in 10.0 mi NNW 4.6 mph - 0.01 in   Scattered Clouds
4:55 PM 62.6 °F 59.0 °F 88% 30.24 in 10.0 mi NW 3.5 mph - 0.01 in   Scattered Clouds
5:15 PM 62.6 °F 59.0 °F 88% 30.23 in 10.0 mi Calm Calm - N/A   Scattered Clouds
5:35 PM 62.6 °F 59.0 °F 88% 30.22 in 10.0 mi Calm Calm - N/A   Scattered Clouds
5:55 PM 62.6 °F 59.0 °F 88% 30.23 in 10.0 mi West 3.5 mph - N/A   Mostly Cloudy
6:15 PM 62.6 °F 59.0 °F 88% 30.28 in 10.0 mi NW 12.7 mph 17.3 mph N/A   Overcast
6:35 PM 62.6 °F 55.4 °F 77% 30.29 in 10.0 mi NNW 8.1 mph - N/A Rain Light Rain
6:55 PM 60.8 °F 53.6 °F 77% 30.29 in 10.0 mi NW 6.9 mph - 0.02 in Rain Rain
7:15 PM 59.0 °F 53.6 °F 82% 30.28 in 10.0 mi Calm Calm - 0.02 in Rain Light Rain
7:35 PM 59.0 °F 53.6 °F 82% 30.25 in 10.0 mi Calm Calm - 0.03 in Rain Light Rain
7:55 PM 59.0 °F 53.6 °F 82% 30.21 in 10.0 mi Calm Calm - 0.03 in Rain Light Rain
8:15 PM 57.2 °F 53.6 °F 88% 30.18 in 10.0 mi Calm Calm - N/A   Light Drizzle
8:35 PM 57.2 °F 53.6 °F 88% 30.20 in 10.0 mi WNW 8.1 mph - N/A   Scattered Clouds
8:55 PM 57.2 °F 53.6 °F 88% 30.21 in 10.0 mi Calm Calm - N/A   Clear
9:15 PM 55.4 °F 51.8 °F 88% 30.21 in 10.0 mi Calm Calm - 0.01 in   Clear
9:35 PM 55.4 °F 51.8 °F 88% 30.21 in 10.0 mi Calm Calm - 0.01 in   Clear
9:55 PM 55.4 °F 51.8 °F 88% 30.21 in 10.0 mi Calm Calm - 0.01 in   Clear
10:15 PM 55.4 °F 51.8 °F 88% 30.20 in 10.0 mi Calm Calm - N/A   Clear
10:35 PM 55.4 °F 51.8 °F 88% 30.20 in 10.0 mi Calm Calm - N/A   Clear
10:55 PM 55.4 °F 51.8 °F 88% 30.20 in 10.0 mi Calm Calm - N/A   Clear
11:15 PM 53.6 °F 51.8 °F 94% 30.20 in 10.0 mi Calm Calm - N/A   Clear
11:35 PM 53.6 °F 50.0 °F 88% 30.21 in 7.0 mi SSW 4.6 mph - N/A   Scattered Clouds
11:55 PM 53.6 °F 51.8 °F 94% 30.21 in 7.0 mi Calm Calm - N/A   Scattered Clouds